Date,TemperatureHighF,TemperatureAvgF,TemperatureLowF,DewpointHighF,DewpointAvgF,DewpointLowF,HumidityHigh,HumidityAvg,HumidityLow,PressureMaxIn,PressureMinIn,WindSpeedMaxMPH,WindSpeedAvgMPH,GustSpeedMaxMPH,PrecipitationSumIn
2013-2-1,77.2,54.1,41.7,44.6,40.3,36.0,88,63,30,30.47,30.35,4,1,5,0.00
2013-2-2,67.8,49.4,43.2,49.1,41.8,38.3,89,76,43,30.56,30.47,7,1,8,0.00
2013-2-3,66.4,50.2,43.0,46.9,42.3,39.6,88,76,42,30.53,30.38,6,1,7,0.00
2013-2-4,59.4,46.5,41.5,48.4,41.7,38.3,88,84,64,30.44,30.32,6,1,7,0.00
2013-2-5,64.6,48.7,43.5,47.3,40.7,36.3,86,75,45,30.41,30.32,11,1,13,0.00
2013-2-6,63.9,46.8,39.2,42.8,36.8,33.4,88,70,39,30.47,30.35,9,1,10,0.00
2013-2-7,57.9,46.0,38.1,43.3,37.3,29.7,89,74,36,30.41,30.23,11,2,11,0.21
2013-2-8,63.0,44.5,35.4,39.9,32.9,25.3,89,67,34,30.26,30.17,6,1,10,0.00
2013-2-9,63.0,46.5,37.0,32.9,24.2,16.0,60,43,26,30.35,30.23,7,1,11,0.04
2013-2-10,66.4,48.7,38.8,37.4,27.9,20.8,70,45,33,30.38,30.26,6,1,8,0.00
2013-2-11,72.0,52.1,41.5,39.4,28.7,21.9,87,43,24,30.47,30.35,7,1,9,0.00
2013-2-12,67.1,48.8,40.1,41.9,35.2,27.3,88,63,34,30.62,30.47,8,1,8,0.00
2013-2-13,69.4,50.7,41.5,42.3,37.4,28.9,82,63,32,30.62,30.47,6,2,6,0.00
2013-2-14,73.2,55.9,45.9,47.7,40.2,31.5,83,58,33,30.53,30.41,6,2,8,0.00
2013-2-15,81.1,59.0,47.7,42.1,34.6,30.0,59,41,23,30.56,30.47,6,1,6,0.00
2013-2-16,74.8,57.2,48.2,44.1,38.0,33.8,64,50,28,30.53,30.29,6,2,7,0.00
2013-2-17,68.7,50.9,41.5,43.0,34.6,26.8,87,57,28,30.32,30.23,9,1,10,0.00
2013-2-18,56.3,44.1,39.2,43.0,37.2,32.9,88,77,49,30.26,30.17,10,1,10,0.00
2013-2-19,54.9,42.6,35.4,41.2,33.3,24.8,88,72,38,30.20,29.97,10,1,15,0.25
2013-2-20,68.5,46.3,35.1,35.6,29.7,27.0,78,55,25,30.32,30.06,6,1,7,0.00
2013-2-21,68.2,49.1,39.9,37.2,30.4,25.9,66,50,31,30.44,30.29,6,1,7,0.00
2013-2-22,70.0,50.7,39.9,39.7,34.5,28.2,77,55,32,30.53,30.41,7,1,9,0.00
2013-2-23,64.0,48.7,40.6,42.3,32.1,25.3,87,56,33,30.53,30.41,12,2,12,0.00
2013-2-24,74.7,50.5,39.6,33.1,25.8,19.0,55,40,21,30.50,30.41,6,1,6,0.00
2013-2-25,77.7,53.0,40.6,35.6,28.4,15.3,70,43,10,30.53,30.41,6,1,7,0.00
2013-2-26,72.3,53.5,41.5,34.0,24.6,20.1,47,33,23,30.47,30.41,7,2,7,0.00
2013-2-27,72.1,54.5,41.5,41.2,31.3,19.6,62,42,26,30.62,30.44,6,1,8,0.00
2013-2-28,71.6,57.2,50.0,50.5,45.0,40.5,84,65,42,30.71,30.59,8,1,8,0.00